Cloud_Cover
21 42 99 95 1 0 0 0 0 0 0 0 0 0 1 38 6 76 100 100 72 31 100 100 82 96 100 100 100 97 80 48 60 21 4 41 100 100 100 100 100 57 5 64 43
100 100 47 76 99 2 0 0 2 0 0 0 0 0 1 36 45 77 100 100 100 100 66 100 100 40 92 100 100 100 96 22 91 17 22 5 85 100 100 100 100 79 18 70 100
100 100 100 95 0 0 0 0 2 3 0 0 0 0 0 98 100 100 100 100 100 91 100 100 92 59 14 84 64 100 36 100 99 97 5 5 5 100 100 100 100 100 44 82 100
100 100 100 97 10 0 0 3 5 5 7 0 0 0 0 79 98 100 100 100 76 100 100 94 100 93 6 92 95 100 100 100 100 100 65 5 12 5 93 100 100 100 100 29 100
100 99 79 100 76 0 0 5 5 62 20 0 0 0 0 33 90 100 100 100 97 75 100 100 98 30 100 21 73 99 100 97 100 100 99 4 24 81 10 82 100 100 99 58 93
76 100 45 100 20 24 0 5 5 81 32 0 0 0 0 9 59 100 100 100 66 66 68 100 93 75 100 100 12 83 71 100 100 100 58 85 5 5 5 53 99 100 98 100 30
100 100 100 23 24 0 0 5 59 87 2 0 0 0 1 6 41 79 100 100 99 81 98 100 100 98 100 100 38 100 94 67 100 100 93 5 7 0 4 37 49 100 100 100 100
100 100 100 100 10 0 0 2 42 97 0 0 0 0 26 5 13 93 100 58 90 100 100 100 99 100 100 100 65 94 100 70 96 100 100 7 1 4 0 2 5 60 100 100 100
100 100 100 100 53 2 0 0 5 20 0 0 0 0 17 5 90 100 100 33 85 95 100 100 100 100 95 100 100 100 35 100 45 100 99 6 2 26 0 0 3 9 100 100 100
100 100 100 100 20 12 0 0 5 5 0 0 0 13 50 36 82 100 79 80 65 85 100 100 100 99 100 100 21 56 100 100 100 100 100 6 4 0 0 0 0 5 64 100 100
42 91 100 100 35 13 0 0 5 5 0 4 5 4 5 41 50 61 100 7 82 100 96 100 100 83 100 100 70 99 100 99 99 100 22 5 5 4 0 0 0 40 78 100 100
45 100 100 100 10 1 0 0 5 5 10 5 5 5 5 5 35 49 7 15 91 100 100 100 100 89 100 100 100 99 96 100 100 100 100 26 5 0 0 0 0 1 76 45 100
100 100 100 100 0 0 2 3 4 5 37 44 4 3 0 59 100 47 36 70 31 100 100 100 100 13 33 100 100 100 100 100 100 99 95 7 5 4 1 0 0 1 5 85 100
100 100 97 6 0 0 0 3 3 5 80 25 32 11 1 23 46 76 84 11 100 99 56 77 80 35 5 96 77 100 100 100 100 40 66 5 14 5 2 0 0 90 70 40 90
100 100 34 5 5 4 2 2 1 5 52 49 18 5 2 3 15 58 38 19 11 31 72 97 68 39 100 100 83 62 96 98 80 74 68 32 86 5 0 0 6 39 98 62 72
100 96 9 5 5 41 0 0 5 55 45 60 18 32 24 5 7 5 37 10 70 30 75 100 99 92 22 27 92 12 25 17 5 66 83 56 74 5 5 0 4 82 62 69 100
100 97 52 22 6 91 42 22 68 6 6 34 73 70 86 15 73 21 49 17 59 47 100 100 93 42 12 7 9 14 75 99 92 93 25 8 5 5 5 0 4 88 97 5 100
100 100 24 5 66 92 7 8 38 8 6 5 57 54 70 7 52 64 21 11 98 94 100 100 100 83 6 40 74 100 93 100 98 93 56 69 2 92 3 0 0 38 19 26 94
42 100 68 5 63 84 6 91 4 5 5 5 6 96 89 84 88 54 6 31 41 100 100 100 96 100 100 100 100 87 86 20 100 86 44 5 21 100 0 0 0 3 4 3 9
68 100 84 14 100 40 23 17 3 5 5 4 5 6 60 96 98 100 76 29 12 73 82 100 95 100 100 100 75 88 100 100 86 49 50 34 22 100 22 0 0 0 29 98 58
100 100 42 29 84 53 90 0 0 1 2 3 5 5 5 63 94 55 39 27 55 99 100 100 100 100 100 100 100 100 100 93 100 96 100 100 98 100 100 45 0 0 0 87 100
100 100 55 79 33 92 5 5 5 1 0 4 2 5 5 5 100 100 38 5 19 100 100 100 100 100 100 100 98 100 100 100 100 100 100 99 100 100 96 77 22 0 5 22 100
100 100 91 49 53 80 5 5 5 2 5 5 2 3 5 5 33 54 87 87 83 100 100 100 100 100 100 84 96 100 100 100 100 100 100 70 80 100 100 92 92 9 0 35 100
100 64 91 36 8 29 5 5 5 0 3 5 3 5 5 7 12 74 68 55 89 100 100 100 100 100 100 100 100 77 100 100 97 83 100 100 100 100 100 100 94 5 4 4 52
100 98 100 100 81 9 12 5 2 0 1 5 4 4 5 5 9 5 77 48 98 97 100 100 100 100 100 100 100 100 100 92 80 62 83 100 100 100 100 100 7 8 5 5 5
48 74 100 100 72 15 23 14 5 4 0 5 4 4 0 62 43 100 100 92 74 89 100 100 100 100 100 100 100 100 88 22 5 86 22 60 100 100 100 100 83 11 5 0 3
46 99 100 100 41 46 79 5 0 0 0 0 0 4 0 4 5 15 86 100 100 100 100 100 100 100 100 100 100 99 100 100 82 41 26 19 96 97 99 99 52 8 5 12 5